[Date Prev][Date Next][Thread Prev][Thread Next] - [Date Index][Thread Index][Author Index]
2 Line ISS Keps 10-20
- Subject: [sarex] 2 Line ISS Keps 10-20
- From: "Dave Larsen PhD" <doc@xxxxxxxxxxx>
- Date: Wed, 20 Oct 2004 05:24:47 -0700
ISS
1 25544U 98067A 04294.31268882 .00019350 00000-0 16656-3 0 9532
2 25544 51.6364 47.2932 0008716 251.2589 150.2858 15.69287760337977
----
Via the sarex mailing list at AMSAT.ORG courtesy of AMSAT-NA.
To unsubscribe, send "unsubscribe sarex" to Majordomo@amsat.org
AMSAT Home